Location: Lane
(33.5226°N, 79.8788°W)
Time: 05:57:11
(UTC+00:00)

Vanguard 2 - Pass Details

Date: 03 October 2022
Orbit: 553 x 2933 km, 32.9° (Epoch: 26 November)

Event Time Altitude Azimuth Distance (km) Brightness Sun altitude
Rises 23:17:18 0° 284° (WNW) 6,213 14.0 -4.2°
Reaches altitude 10° 23:21:10 10° 281° (WNW) 5,407 13.5 -5.0°
Maximum altitude 23:37:48 59° 208° (SSW) 3,236 10.8 -8.5°
Drops below altitude 10° 23:53:54 10° 134° (SE) 5,234 11.3 -11.8°
Enters shadow 23:57:25 - 131° (SE) 5,974 11.6 -12.6°
Sets 23:57:35 0° 131° (SE) 6,011 - -12.6°
